• en France
  • Liste des pays
  • À 7 jours
  • Température de l'eau
  • Carte satellitaire
  • Carte météo
  • Widgets météo
  • user-avatar
    Se connecter

    Météo par heure à Mokrica

    Ce jour, 20 Septembre, Jeudi

    Heure Température Précipitation Vent Pression Humidité
    00:00 +15°C° 0 mm 2 m/s 751 mmHg 94%
    01:00 +15°C° 0 mm 2 m/s 751 mmHg 95%
    02:00 +14°C° 0 mm 2 m/s 752 mmHg 96%
    03:00 +13°C° 0 mm 2 m/s 752 mmHg 97%
    04:00 +13°C° 0 mm 2 m/s 752 mmHg 97%
    05:00 +13°C° 0 mm 2 m/s 752 mmHg 98%
    06:00 +14°C° 0 mm 2 m/s 752 mmHg 94%
    07:00 +14°C° 0 mm 2 m/s 753 mmHg 91%
    08:00 +14°C° 0 mm 3 m/s 753 mmHg 88%
    09:00 +17°C° 0 mm 3 m/s 753 mmHg 81%
    10:00 +19°C° 0 mm 3 m/s 753 mmHg 74%
    11:00 +20°C° 0 mm 3 m/s 753 mmHg 68%
    12:00 +21°C° 0 mm 3 m/s 753 mmHg 65%
    13:00 +22°C° 0 mm 3 m/s 753 mmHg 62%
    14:00 +24°C° 0 mm 3 m/s 753 mmHg 59%
    15:00 +24°C° 0 mm 3 m/s 753 mmHg 63%
    16:00 +22°C° 0 mm 3 m/s 753 mmHg 68%
    17:00 +21°C° 0 mm 2 m/s 752 mmHg 72%
    18:00 +20°C° 0 mm 2 m/s 753 mmHg 76%
    19:00 +19°C° 0 mm 2 m/s 753 mmHg 81%
    20:00 +17°C° 0 mm 2 m/s 753 mmHg 86%
    21:00 +17°C° 0 mm 2 m/s 753 mmHg 88%
    22:00 +17°C° 0 mm 2 m/s 753 mmHg 90%
    23:00 +17°C° 0 mm 2 m/s 753 mmHg 92%

    Demain, 21 Septembre, Vendredi

    Heure Température Précipitation Vent Pression Humidité
    00:00 +16°C° 0 mm 2 m/s 753 mmHg 93%
    01:00 +16°C° 0 mm 2 m/s 753 mmHg 95%
    02:00 +16°C° 0 mm 2 m/s 753 mmHg 97%
    03:00 +16°C° 0 mm 2 m/s 753 mmHg 97%
    04:00 +16°C° 0 mm 2 m/s 753 mmHg 97%
    05:00 +16°C° 0 mm 2 m/s 753 mmHg 97%
    06:00 +17°C° 0 mm 3 m/s 753 mmHg 93%
    07:00 +18°C° 0 mm 3 m/s 753 mmHg 89%
    08:00 +18°C° 0 mm 3 m/s 753 mmHg 86%
    09:00 +20°C° 0 mm 3 m/s 753 mmHg 79%
    10:00 +22°C° 0 mm 3 m/s 753 mmHg 73%
    11:00 +25°C° 0 mm 3 m/s 753 mmHg 67%
    12:00 +25°C° 0 mm 4 m/s 753 mmHg 63%
    13:00 +26°C° 0 mm 4 m/s 752 mmHg 60%
    14:00 +27°C° 0 mm 5 m/s 752 mmHg 56%
    15:00 +26°C° 0 mm 4 m/s 751 mmHg 61%
    16:00 +25°C° 0 mm 4 m/s 751 mmHg 65%
    17:00 +25°C° 0 mm 3 m/s 750 mmHg 69%
    18:00 +24°C° 0 mm 3 m/s 750 mmHg 72%
    19:00 +22°C° 0 mm 4 m/s 750 mmHg 75%
    20:00 +20°C° 0 mm 4 m/s 750 mmHg 77%
    21:00 +20°C° 0 mm 4 m/s 749 mmHg 75%
    22:00 +20°C° 0 mm 5 m/s 749 mmHg 73%
    23:00 +19°C° 0 mm 5 m/s 748 mmHg 70%

    Après-demain, 22 Septembre, Samedi

    Heure Température Précipitation Vent Pression Humidité
    00:00 +19°C° 0 mm 5 m/s 748 mmHg 70%
    01:00 +19°C° 0 mm 5 m/s 747 mmHg 69%
    02:00 +19°C° 0 mm 6 m/s 746 mmHg 68%
    03:00 +19°C° 0 mm 5 m/s 746 mmHg 68%
    04:00 +19°C° 0 mm 5 m/s 746 mmHg 69%
    05:00 +17°C° 0 mm 5 m/s 745 mmHg 69%
    06:00 +16°C° 0.5 mm 5 m/s 746 mmHg 74%
    07:00 +15°C° 0.5 mm 5 m/s 746 mmHg 79%
    08:00 +14°C° 0.5 mm 4 m/s 746 mmHg 84%
    09:00 +13°C° 0.8 mm 4 m/s 746 mmHg 84%
    10:00 +13°C° 0.8 mm 4 m/s 747 mmHg 84%
    11:00 +12°C° 0.8 mm 4 m/s 747 mmHg 84%
    12:00 +13°C° 0 mm 4 m/s 747 mmHg 79%
    13:00 +14°C° 0 mm 4 m/s 747 mmHg 75%
    14:00 +14°C° 0 mm 4 m/s 747 mmHg 70%
    15:00 +14°C° 0.1 mm 4 m/s 747 mmHg 70%
    16:00 +14°C° 0.1 mm 4 m/s 747 mmHg 71%
    17:00 +13°C° 0.1 mm 4 m/s 747 mmHg 71%
    18:00 +12°C° 0.1 mm 4 m/s 747 mmHg 74%
    19:00 +12°C° 0.1 mm 3 m/s 747 mmHg 77%
    20:00 +11°C° 0.1 mm 3 m/s 748 mmHg 81%
    21:00 +10°C° 0 mm 3 m/s 748 mmHg 83%
    22:00 +9°C° 0 mm 3 m/s 748 mmHg 85%
    23:00 +9°C° 0 mm 3 m/s 748 mmHg 87%

    23 Septembre, Dimanche

    Heure Température Précipitation Vent Pression Humidité
    00:00 +8°C° 0 mm 3 m/s 748 mmHg 88%
    01:00 +8°C° 0 mm 3 m/s 747 mmHg 90%
    02:00 +8°C° 0 mm 3 m/s 747 mmHg 91%
    03:00 +7°C° 0 mm 3 m/s 747 mmHg 91%
    04:00 +7°C° 0 mm 3 m/s 747 mmHg 91%
    05:00 +7°C° 0 mm 3 m/s 747 mmHg 92%
    06:00 +7°C° 0 mm 4 m/s 746 mmHg 88%
    07:00 +8°C° 0 mm 4 m/s 746 mmHg 85%
    08:00 +9°C° 0 mm 5 m/s 746 mmHg 81%
    09:00 +10°C° 0 mm 5 m/s 746 mmHg 77%
    10:00 +12°C° 0 mm 5 m/s 746 mmHg 73%
    11:00 +12°C° 0 mm 5 m/s 745 mmHg 69%
    12:00 +13°C° 0.3 mm 5 m/s 745 mmHg 69%
    13:00 +13°C° 0.3 mm 6 m/s 745 mmHg 69%
    14:00 +13°C° 0.3 mm 6 m/s 745 mmHg 70%
    15:00 +12°C° 0.3 mm 5 m/s 745 mmHg 73%
    16:00 +12°C° 0.3 mm 4 m/s 745 mmHg 77%
    17:00 +11°C° 0.3 mm 4 m/s 745 mmHg 80%
    18:00 +10°C° 0 mm 4 m/s 745 mmHg 84%
    19:00 +9°C° 0 mm 3 m/s 745 mmHg 87%
    20:00 +9°C° 0 mm 3 m/s 746 mmHg 90%
    21:00 +8°C° 0 mm 3 m/s 746 mmHg 92%
    22:00 +8°C° 0 mm 3 m/s 746 mmHg 94%
    23:00 +8°C° 0 mm 3 m/s 746 mmHg 95%

    24 Septembre, Lundi

    Heure Température Précipitation Vent Pression Humidité
    00:00 +7°C° 0 mm 3 m/s 746 mmHg 96%
    01:00 +7°C° 0 mm 2 m/s 746 mmHg 97%
    02:00 +6°C° 0 mm 2 m/s 746 mmHg 98%
    03:00 +6°C° 0 mm 2 m/s 746 mmHg 98%
    04:00 +6°C° 0 mm 2 m/s 746 mmHg 98%
    05:00 +7°C° 0 mm 1 m/s 745 mmHg 98%
    06:00 +7°C° 0 mm 1 m/s 745 mmHg 96%
    07:00 +7°C° 0 mm 2 m/s 745 mmHg 94%
    08:00 +8°C° 0 mm 2 m/s 745 mmHg 91%
    09:00 +9°C° 0 mm 2 m/s 744 mmHg 85%
    10:00 +10°C° 0 mm 3 m/s 744 mmHg 78%
    11:00 +12°C° 0 mm 3 m/s 743 mmHg 72%
    12:00 +11°C° 0.4 mm 3 m/s 742 mmHg 75%
    13:00 +11°C° 0.4 mm 3 m/s 741 mmHg 79%
    14:00 +10°C° 0.4 mm 3 m/s 740 mmHg 82%
    15:00 +8°C° 1.9 mm 4 m/s 739 mmHg 85%
    16:00 +7°C° 1.9 mm 5 m/s 739 mmHg 88%
    17:00 +7°C° 1.9 mm 5 m/s 738 mmHg 92%
    18:00 +5°C° 1.5 mm 6 m/s 737 mmHg 92%
    19:00 +5°C° 1.5 mm 6 m/s 736 mmHg 92%
    20:00 +5°C° 1.5 mm 6 m/s 734 mmHg 93%
    21:00 +6°C° 1.4 mm 5 m/s 733 mmHg 93%
    22:00 +6°C° 1.4 mm 5 m/s 732 mmHg 94%
    23:00 +6°C° 1.4 mm 5 m/s 731 mmHg 95%

    25 Septembre, Mardi

    Heure Température Précipitation Vent Pression Humidité
    00:00 +6°C° 2.6 mm 5 m/s 731 mmHg 95%
    01:00 +5°C° 2.6 mm 6 m/s 730 mmHg 95%
    02:00 +5°C° 2.6 mm 6 m/s 730 mmHg 95%
    03:00 +5°C° 1.6 mm 6 m/s 730 mmHg 94%
    04:00 +5°C° 1.6 mm 6 m/s 730 mmHg 93%
    05:00 +5°C° 1.6 mm 7 m/s 730 mmHg 93%
    06:00 +5°C° 1.4 mm 7 m/s 730 mmHg 92%
    07:00 +5°C° 1.4 mm 7 m/s 731 mmHg 92%
    08:00 +5°C° 1.4 mm 7 m/s 731 mmHg 91%
    09:00 +5°C° 0.9 mm 8 m/s 732 mmHg 90%
    10:00 +5°C° 0.9 mm 8 m/s 733 mmHg 90%
    11:00 +5°C° 0.9 mm 8 m/s 734 mmHg 89%
    12:00 +5°C° 0.9 mm 8 m/s 735 mmHg 89%
    13:00 +5°C° 0.9 mm 9 m/s 736 mmHg 88%
    14:00 +5°C° 0.9 mm 9 m/s 737 mmHg 88%
    15:00 +5°C° 0.7 mm 9 m/s 738 mmHg 87%
    16:00 +5°C° 0.7 mm 9 m/s 739 mmHg 87%
    17:00 +4°C° 0.7 mm 8 m/s 740 mmHg 86%
    18:00 +4°C° 0.2 mm 8 m/s 741 mmHg 85%
    19:00 +4°C° 0.2 mm 8 m/s 741 mmHg 84%
    20:00 +3°C° 0.2 mm 7 m/s 742 mmHg 83%
    21:00 +3°C° 0.1 mm 7 m/s 743 mmHg 82%
    22:00 +3°C° 0.1 mm 7 m/s 743 mmHg 82%
    23:00 +3°C° 0.1 mm 6 m/s 744 mmHg 81%
    Voir plus